Погода в Беляницах

Россия / Тверская область     57°41′48″N   36°58′35″E
темп.,
°C
ветер,
м/с
пор.,
м/с
влажн.,
%
обл.,
%
осадки,
мм/ч
давл.,
гПа
погр.,
м
7 мая, пт
пт700:00+5ююз61289100 0.1 1004859
03:00+5юз61184100 0.1 1005808
06:00+5ююз5107968 0.0 1006788
09:00+8юз796443 0.1 10071421
12:00+11зюз71047100 0.1 10082507
15:00+11юз7104857 0.2 10082173
18:00+11юз595963 0.5 10081370
21:00+6ю497947 0.6 1010177
8 мая, сб
сб800:00+5ююв4889100 0.0 1010136
03:00+5юв51282100 0.0 1009240
06:00+6ююв61480100 0.2 1008730
09:00+7ююв81591100 2.5 10061110
12:00+7ююв61293100 0.3 1005870
15:00+8ююв4895100 0.6 1005549
18:00+8юз1296100 1.6 1004201
21:00+6сз71189100 4.8 1005671
9 мая, вс
вс900:00+4сз61290100 0.1 1006740
03:00+3сз71291100 0.1 1008798
06:00+3сз61188100 0.0 1010943
09:00+4сз81082100 0.1 1012905
12:00+9сз81050100 0.0 10141831
15:00+11сз7943100 0.0 10162245
18:00+10зсз58535 0.0 10181447
21:00+5зсз48650 0.0 1022129
10 мая, пн
пн1000:00+3зсз33725 0.0 102432
03:00+3зюз227881 0.0 102620
06:00+4ююз367843 0.0 1027132
09:00+10ююз59557 0.0 1028645
12:00+13юз7950100 0.0 10271634
15:00+13юз695970 0.0 1027954
18:00+14юз486366 0.0 1027756
21:00+10ююз46795 0.0 102884
11 мая, вт
вт1100:00+8юз3789100 0.0 1029105
03:00+8юз348897 0.0 103053
06:00+9юз3585100 0.0 1031102
09:00+14юз3568100 0.0 1031377
12:00+17ююз455694 0.0 1031970
15:00+19ююз455393 0.0 10301215
18:00+18ююз23600 0.0 1029680
21:00+12ююв34825 0.0 102953